| time (UTC) | temp C | wind direction | speed KPH | gust KPH | rain 1hr cm | rain 24hr cm | rain mn cm | humidity % | barometer mb |
| 20260509153049 | 17 | 92 | 8.0 | 17.7 | 0.00 | 0.00 | 0.00 | 32 | 1019.2 |
| 20260509151617 | 17 | 137 | 8.0 | 16.1 | 0.00 | 0.00 | 0.00 | 32 | 1019.3 |
| 20260509150055 | 17 | 131 | 8.0 | 16.1 | 0.00 | 0.00 | 0.00 | 33 | 1019.3 |
| 20260509144558 | 17 | 134 | 6.4 | 14.5 | 0.00 | 0.00 | 0.00 | 33 | 1019.3 |
| 20260509143049 | 17 | 133 | 4.8 | 11.3 | 0.00 | 0.00 | 0.00 | 33 | 1019.4 |
| 20260509141608 | 18 | 118 | 4.8 | 14.5 | 0.00 | 0.00 | 0.00 | 32 | 1019.5 |
| 20260509140132 | 18 | 106 | 4.8 | 14.5 | 0.00 | 0.00 | 0.00 | 32 | 1019.5 |
| 20260509134620 | 18 | 107 | 3.2 | 9.7 | 0.00 | 0.00 | 0.00 | 32 | 1019.6 |
| 20260509133050 | 18 | 149 | 4.8 | 9.7 | 0.00 | 0.00 | 0.00 | 32 | 1019.7 |
| 20260509131637 | 18 | 141 | 6.4 | 11.3 | 0.00 | 0.00 | 0.00 | 32 | 1019.7 |
| 20260509124549 | 18 | 122 | 3.2 | 8.0 | 0.00 | 0.00 | 0.00 | 32 | 1019.8 |
| 20260509123114 | 18 | 118 | 3.2 | 12.9 | 0.00 | 0.00 | 0.00 | 32 | 1019.7 |
| 20260509121552 | 19 | 146 | 4.8 | 9.7 | 0.00 | 0.00 | 0.00 | 31 | 1019.6 |
| 20260509120058 | 19 | 108 | 4.8 | 11.3 | 0.00 | 0.00 | 0.00 | 31 | 1019.5 |
| 20260509114601 | 19 | 138 | 4.8 | 12.9 | 0.00 | 0.00 | 0.00 | 31 | 1019.2 |
| 20260509113054 | 20 | 122 | 3.2 | 9.7 | 0.00 | 0.00 | 0.00 | 31 | 1019.0 |
| 20260509111549 | 20 | 151 | 8.0 | 19.3 | 0.00 | 0.00 | 0.00 | 30 | 1018.8 |
| 20260509110052 | 20 | 124 | 3.2 | 6.4 | 0.00 | 0.00 | 0.00 | 30 | 1019.0 |
| 20260509104556 | 20 | 135 | 1.6 | 11.3 | 0.00 | 0.00 | 0.00 | 29 | 1019.2 |
| 20260509103047 | 21 | 131 | 1.6 | 4.8 | 0.00 | 0.00 | 0.00 | 29 | 1018.9 |
| 20260509101548 | 21 | 132 | 4.8 | 8.0 | 0.00 | 0.00 | 0.00 | 28 | 1018.6 |
| 20260509100047 | 22 | 145 | 3.2 | 12.9 | 0.00 | 0.00 | 0.00 | 27 | 1018.6 |
| 20260509094547 | 22 | 93 | 9.7 | 19.3 | 0.00 | 0.00 | 0.00 | 26 | 1018.4 |
| 20260509093054 | 22 | 106 | 8.0 | 17.7 | 0.00 | 0.00 | 0.00 | 26 | 1018.3 |
| 20260509091549 | 23 | 86 | 11.3 | 25.7 | 0.00 | 0.00 | 0.00 | 25 | 1018.2 |
| 20260509090101 | 23 | 141 | 8.0 | 22.5 | 0.00 | 0.00 | 0.00 | 25 | 1017.9 |
| 20260509084559 | 24 | 93 | 17.7 | 22.5 | 0.00 | 0.00 | 0.00 | 25 | 1017.8 |
| 20260509083048 | 24 | 137 | 12.9 | 25.7 | 0.00 | 0.00 | 0.00 | 24 | 1017.7 |
| 20260509081551 | 25 | 85 | 9.7 | 24.1 | 0.00 | 0.00 | 0.00 | 24 | 1017.5 |
| 20260509080049 | 25 | 108 | 16.1 | 29.0 | 0.00 | 0.00 | 0.00 | 23 | 1017.4 |
| 20260509074554 | 25 | 93 | 16.1 | 22.5 | 0.00 | 0.00 | 0.00 | 23 | 1017.3 |
| 20260509073051 | 25 | 155 | 12.9 | 20.9 | 0.00 | 0.00 | 0.00 | 23 | 1017.3 |
| 20260509071551 | 25 | 108 | 16.1 | 25.7 | 0.00 | 0.00 | 0.00 | 23 | 1017.4 |
| 20260509070104 | 26 | 90 | 19.3 | 29.0 | 0.00 | 0.00 | 0.00 | 23 | 1017.5 |
| 20260509064549 | 26 | 73 | 17.7 | 27.4 | 0.00 | 0.00 | 0.00 | 22 | 1017.4 |
| 20260509063049 | 25 | 140 | 12.9 | 24.1 | 0.00 | 0.00 | 0.00 | 23 | 1017.3 |
| 20260509061607 | 25 | 106 | 12.9 | 27.4 | 0.00 | 0.00 | 0.00 | 23 | 1017.5 |
| 20260509060052 | 26 | 66 | 14.5 | 29.0 | 0.00 | 0.00 | 0.00 | 23 | 1017.5 |
| 20260509054612 | 25 | 139 | 8.0 | 25.7 | 0.00 | 0.00 | 0.00 | 23 | 1017.6 |
| 20260509053141 | 25 | 140 | 14.5 | 24.1 | 0.00 | 0.00 | 0.00 | 23 | 1017.8 |
| 20260509051555 | 25 | 72 | 11.3 | 30.6 | 0.00 | 0.00 | 0.00 | 24 | 1017.9 |
| 20260509050056 | 25 | 180 | 6.4 | 25.7 | 0.00 | 0.00 | 0.00 | 25 | 1018.0 |
| 20260509044550 | 25 | 135 | 12.9 | 22.5 | 0.00 | 0.00 | 0.00 | 24 | 1018.3 |
| 20260509043051 | 25 | 74 | 12.9 | 33.8 | 0.00 | 0.00 | 0.00 | 25 | 1018.6 |
| 20260509041551 | 24 | 60 | 11.3 | 29.0 | 0.00 | 0.00 | 0.00 | 25 | 1018.8 |
| 20260509040107 | 23 | 112 | 19.3 | 27.4 | 0.00 | 0.00 | 0.00 | 25 | 1019.1 |
| 20260509034609 | 24 | 92 | 17.7 | 33.8 | 0.00 | 0.00 | 0.00 | 25 | 1019.4 |
| 20260509033052 | 24 | 77 | 16.1 | 32.2 | 0.00 | 0.00 | 0.00 | 25 | 1019.6 |
| 20260509031553 | 24 | 66 | 17.7 | 32.2 | 0.00 | 0.00 | 0.00 | 25 | 1019.7 |
| 20260509024552 | 23 | 108 | 24.1 | 30.6 | 0.00 | 0.00 | 0.00 | 25 | 1020.4 |
| 20260509023140 | 22 | 103 | 17.7 | 29.0 | 0.00 | 0.00 | 0.00 | 25 | 1020.8 |
| 20260509021608 | 22 | 83 | 16.1 | 32.2 | 0.00 | 0.00 | 0.00 | 26 | 1021.0 |
| 20260509020050 | 22 | 88 | 19.3 | 32.2 | 0.00 | 0.00 | 0.00 | 26 | 1021.1 |
| 20260509014646 | 21 | 77 | 17.7 | 30.6 | 0.00 | 0.00 | 0.00 | 26 | 1021.2 |
| 20260509013103 | 21 | 100 | 17.7 | 29.0 | 0.00 | 0.00 | 0.00 | 27 | 1021.3 |
| 20260509011605 | 20 | 131 | 17.7 | 33.8 | 0.00 | 0.00 | 0.00 | 28 | 1021.4 |
| 20260509010149 | 20 | 102 | 24.1 | 37.0 | 0.00 | 0.00 | 0.00 | 29 | 1021.4 |
| 20260509004633 | 19 | 79 | 17.7 | 30.6 | 0.00 | 0.00 | 0.00 | 29 | 1021.3 |
| 20260509003111 | 18 | 92 | 22.5 | 33.8 | 0.00 | 0.00 | 0.00 | 31 | 1021.4 |
| 20260509000201 | 17 | 96 | 14.5 | 29.0 | 0.00 | 0.00 | 0.00 | 34 | 1021.4 |